NOZ8DA EKVG-ENGM

Flight info

Callsign NOZ8DA
Flight time N/A
Altitude 37000
Route ODEVA DCT ERSER/N0442F370 DCT ADOPI
Aircraft B38M/M-SDE1FGHILORVWXY/HB1

Departure

Time 2026-04-28 12:44
Airport Vágar Airport (EKVG)

Arrival

Time N/A
Airport Oslo-Gardermoen International Airport (ENGM)
Time Latitude Longitude Altitude Speed Heading
2026-04-28 12:18 62.06754 -7.28214 284 ft 0 kts 72°
2026-04-28 12:38 62.06754 -7.28212 284 ft 0 kts 74°
2026-04-28 12:38 62.06750 -7.28190 281 ft 3 kts 129°
2026-04-28 12:38 62.06727 -7.28166 281 ft 5 kts 153°
2026-04-28 12:39 62.06691 -7.28123 281 ft 6 kts 164°
2026-04-28 12:39 62.06684 -7.28118 284 ft 2 kts 165°
2026-04-28 12:39 62.06663 -7.28109 281 ft 4 kts 168°
2026-04-28 12:39 62.06628 -7.28092 281 ft 7 kts 167°
2026-04-28 12:40 62.06571 -7.28091 280 ft 10 kts 187°
2026-04-28 12:40 62.06510 -7.28139 283 ft 9 kts 204°
2026-04-28 12:40 62.06473 -7.28176 283 ft 3 kts 160°
2026-04-28 12:40 62.06459 -7.28128 284 ft 8 kts 117°
2026-04-28 12:41 62.06409 -7.27929 286 ft 22 kts 118°
2026-04-28 12:41 62.06320 -7.27561 291 ft 33 kts 118°
2026-04-28 12:41 62.06205 -7.27101 281 ft 38 kts 118°
2026-04-28 12:41 62.06081 -7.26596 261 ft 35 kts 118°
2026-04-28 12:42 62.05991 -7.26235 248 ft 33 kts 117°
2026-04-28 12:42 62.05933 -7.26044 243 ft 3 kts 84°
2026-04-28 12:42 62.05940 -7.26039 243 ft 1 kts 357°
2026-04-28 12:42 62.05950 -7.26076 243 ft 10 kts 300°
2026-04-28 12:43 62.05956 -7.26098 244 ft 0 kts 297°
2026-04-28 12:43 62.06049 -7.26484 257 ft 71 kts 297°
2026-04-28 12:43 62.06410 -7.27930 286 ft 149 kts 297°
2026-04-28 12:43 62.06999 -7.30216 578 ft 192 kts 291°
2026-04-28 12:44 62.07529 -7.32974 1466 ft 206 kts 282°
2026-04-28 12:44 62.07980 -7.36028 2366 ft 224 kts 281°
2026-04-28 12:44 62.08429 -7.39237 3470 ft 229 kts 282°
2026-04-28 12:44 62.08922 -7.42427 4684 ft 228 kts 283°
2026-04-28 12:45 62.09388 -7.45702 5728 ft 229 kts 277°
2026-04-28 12:45 62.09576 -7.49083 6733 ft 232 kts 265°
2026-04-28 12:45 62.09384 -7.52499 7656 ft 232 kts 252°
2026-04-28 12:45 62.08810 -7.55720 8641 ft 234 kts 240°
2026-04-28 12:46 62.07886 -7.58599 9597 ft 237 kts 229°
2026-04-28 12:46 62.06652 -7.60988 10518 ft 243 kts 217°
2026-04-28 12:46 62.05159 -7.62753 11384 ft 249 kts 205°
2026-04-28 12:46 62.03478 -7.63754 12262 ft 255 kts 192°
2026-04-28 12:47 62.01677 -7.63852 13121 ft 263 kts 179°
2026-04-28 12:47 61.99864 -7.62940 13905 ft 275 kts 164°
2026-04-28 12:47 61.98162 -7.60948 14662 ft 286 kts 148°
2026-04-28 12:47 61.96723 -7.57932 15375 ft 297 kts 131°
2026-04-28 12:48 61.95705 -7.54021 16081 ft 309 kts 114°
2026-04-28 12:48 61.95242 -7.49487 16672 ft 323 kts 99°